JA3VQW-13 Hirakata JP current weather conditions

sailwx.info

Wind from 270

Air temperature 30.6° C
Dewpoint 11.5° C

Last reported at 2016-May-26 03:54 UTC.
Time now 2016-May-26 04:40 UTC

Location: N 34°48' E 135°40'.
View on Google Maps.

See reports from other nearby stations

  
Tides and Currents Weather Stations Pressure Air Temp Water Temp Dewpoint Dewpoint Depression Visibility Wind Speed Wind Dir Waves Ship Positions
date/time (UTC)wind fromknots sea level pressurealtimeterstation pressurevisibilityair tempwater tempwave heightnotes
2016-May-26 03:54 270 30.6
2016-May-26 03:24 180 31.1
2016-May-26 02:54 292 30.6
2016-May-26 02:24 285 29.4
2016-May-26 01:54 270 29.4
2016-May-26 01:24 270 29.4
2016-May-26 00:54 167 28.9
2016-May-26 00:24 315 28.3
2016-May-25 23:54 315 27.8
2016-May-25 23:24 270 26.7
2016-May-25 22:54 292 25.6
2016-May-25 22:24 135 25.0
2016-May-25 21:54 135 24.4
2016-May-25 21:24 135 23.3
2016-May-25 20:54 225 22.8
2016-May-25 20:24 270 22.8
2016-May-25 19:54 270 22.8
2016-May-25 19:24 270 22.8
2016-May-25 18:54 270 22.8
2016-May-25 18:24 270 22.8
2016-May-25 17:54 270 22.8
2016-May-25 17:24 090 22.8
2016-May-25 16:54 090 22.2
2016-May-25 16:24 101 22.8
2016-May-25 15:54 270 22.8
2016-May-25 15:24 312 22.8
2016-May-25 14:54 270 22.8
2016-May-25 14:24 270 22.8
2016-May-25 13:54 090 22.8
2016-May-25 13:40 225 22.8
2016-May-25 13:10 270 23.3
2016-May-25 12:40 270 23.3
2016-May-25 12:10 315 23.3
2016-May-25 11:40 106 23.3
2016-May-25 11:10 265 23.9
2016-May-25 10:40 335 23.9
2016-May-25 10:10 135 24.4
2016-May-25 09:40 254 25.0
2016-May-25 09:10 315 25.0
2016-May-25 08:40 298 25.6
2016-May-25 08:10 248 25.6
2016-May-25 07:40 045 25.6
2016-May-25 07:10 288 25.6
2016-May-25 06:40 265 25.6
2016-May-25 06:10 315 26.1
2016-May-25 05:40 135 26.1
2016-May-25 05:10 206 26.1
2016-May-25 04:40 298 26.7
2016-May-25 04:10 292 25.6
2016-May-25 03:40 270 25.6
2016-May-25 03:10 292 26.7
2016-May-25 02:43 270 26.7
2016-May-25 02:13 045 25.6
2016-May-25 01:43 135 25.0
2016-May-25 01:13 270 24.4
2016-May-25 00:43 228 24.4
2016-May-25 00:13 292 23.9
2016-May-24 23:43 270 22.8
2016-May-24 23:13 225 22.8
2016-May-24 22:43 112 22.2
2016-May-24 22:13 112 21.7
2016-May-24 21:43 112 21.7
2016-May-24 21:13 050 21.7
2016-May-24 20:43 112 21.1
2016-May-24 20:13 045 21.1
2016-May-24 19:43 270 21.7
2016-May-24 19:13 158 21.7
2016-May-24 18:43 158 21.7
2016-May-24 18:13 158 22.2
2016-May-24 17:43 158 22.2
2016-May-24 17:13 158 22.2
2016-May-24 16:43 158 22.2
2016-May-24 16:13 158 22.8
2016-May-24 15:43 158 22.8
2016-May-24 15:13 158 22.8
2016-May-24 14:43 270 23.3
2016-May-24 14:13 270 23.3
2016-May-24 13:43 247 23.3
2016-May-24 13:26 250 23.3
2016-May-24 12:56 197 23.3
2016-May-24 12:26 288 23.3
2016-May-24 11:56 183 23.9
2016-May-24 11:26 233 23.9
2016-May-24 10:56 293 2 gusting 5 23.9
2016-May-24 10:26 301 4 gusting 6 24.4
2016-May-24 09:56 096 24.4
2016-May-24 09:26 286 1 gusting 5 25.0
2016-May-24 08:56 295 1 gusting 4 25.0
2016-May-24 08:26 191 4 gusting 4 25.6
2016-May-24 07:56 240 4 gusting 2 26.1
2016-May-24 07:26 158 26.7
2016-May-24 06:56 294 5 gusting 4 27.2
2016-May-24 06:26 189 2 gusting 5 28.3
2016-May-24 05:54 260 1 gusting 2 29.4
2016-May-24 05:24 305 4 gusting 6 29.4
2016-May-24 05:16 286 5 gusting 6 29.4
2016-May-24 04:54 287 5 gusting 6 29.4
2016-May-24 04:24 284 4 gusting 6 30.0